Kalamazoo, MI

5:51 AM EDT on May 25, 2018 (GMT -0400)
Kalamazoo-Battle Creek International

Weather History for KAZO - January, 2015

Change the Weather History Date:

Friday, January 9, 2015

  Actual Average Record
Temperature  
Mean Temperature 12 °F 24 °F  
Max Temperature 18 °F 31 °F 59 °F (1965)
Min Temperature 6 °F 18 °F -4 °F (1977)
Degree Days  
Heating Degree Days 53 41  
Month to date heating degree days 426 361  
Since 1 July heating degree days 2941 2812  
Cooling Degree Days 0 0  
Month to date cooling degree days 0 0  
Year to date cooling degree days 0 0  
Moisture  
Dew Point 6 °F    
Average Humidity 75    
Maximum Humidity 84    
Minimum Humidity 66    
Precipitation  
Precipitation 0.01 in 0.06 in 0.65 in (1984)
Month to date precipitation 0.76 0.55  
Year to date precipitation 0.76 0.55  
Sea Level Pressure  
Sea Level Pressure 30.08 in    
Wind  
Wind Speed 14 mph (West)    
Max Wind Speed 30 mph    
Max Gust Speed 40 mph    
Visibility 1 miles    
Events Snow    
T = Trace of Precipitation, MM = Missing Value Source: NWS Daily Summary

Daily Weather History Graph

Daily Weather History Graph

Search for Another Location

Airport or City:

Astronomy

Jan. 09, 2015 Rise Set
Actual Time 8:10 AM EST 5:28 PM EST
Civil Twilight 7:39 AM EST 5:59 PM EST
Nautical Twilight 7:04 AM EST 6:34 PM EST
Astronomical Twilight 6:30 AM EST 7:08 PM EST
Moon 10:06 PM EST (1/9) 10:21 AM EST (1/9)
Length of Visible Light 10h 20m
Length of Day
9h 17m
Waning Gibbous, 82% of the Moon is Illuminated
Jan 9
Waning Gibbous
Jan 13
Last Quarter
Jan 20
New
Jan 26
First Quarter
Feb 3
Full

Hourly Weather History & Observations

Time (EST) Temp. Windchill Dew Point Humidity Pressure Visibility Wind Dir Wind Speed Gust Speed Precip Events Conditions
12:06 AM 16.0 °F 0.1 °F 10.9 °F 81% 29.70 in 0.5 mi WSW 17.3 mph 26.5 mph 0.00 in Snow Snow
12:53 AM 17.1 °F 3.6 °F 12.9 °F 84% 29.78 in 0.8 mi WSW 12.7 mph - 0.00 in Snow Light Snow
1:08 AM 17.1 °F 3.6 °F 12.9 °F 84% 29.72 in 0.8 mi West 12.7 mph 23.0 mph 0.00 in Snow Light Snow
1:53 AM 16.0 °F -3.2 °F 10.9 °F 81% 29.83 in 0.8 mi WNW 26.5 mph 35.7 mph 0.00 in Snow Light Snow
2:07 AM 16.0 °F 1.1 °F 10.9 °F 81% 29.79 in 0.8 mi WNW 15.0 mph 33.4 mph 0.00 in Snow Light Snow
2:16 AM 15.1 °F -2.0 °F 10.0 °F 80% 29.80 in 1.0 mi WNW 19.6 mph 31.1 mph 0.00 in Snow Light Snow
2:51 AM 14.0 °F -1.4 °F 8.6 °F 79% 29.85 in 0.5 mi WNW 15.0 mph 28.8 mph 0.00 in Snow Snow
2:53 AM 14.0 °F -0.8 °F 9.0 °F 80% 29.91 in 0.5 mi WNW 13.8 mph 28.8 mph 0.00 in Snow Snow
2:59 AM 14.0 °F -2.5 °F 8.1 °F 77% 29.85 in 1.0 mi WNW 17.3 mph 27.6 mph 0.00 in Snow Light Snow
3:53 AM 12.9 °F -0.9 °F 9.0 °F 84% 29.95 in 1.2 mi West 11.5 mph - 0.00 in Snow Light Snow
4:40 AM 14.0 °F 2.0 °F 9.0 °F 80% 29.91 in 2.5 mi West 9.2 mph - 0.00 in Snow Light Snow
4:53 AM 15.1 °F 1.8 °F 9.0 °F 77% 29.97 in 1.5 mi West 11.5 mph - 0.00 in Snow Light Snow
5:08 AM 14.0 °F 1.2 °F 10.0 °F 84% 29.92 in 1.0 mi West 10.4 mph - 0.00 in Snow Light Snow
5:45 AM 15.1 °F 0.5 °F 10.0 °F 80% 29.93 in 1.5 mi West 13.8 mph - 0.00 in Snow Light Snow
5:53 AM 15.1 °F 1.8 °F 10.0 °F 80% 30.00 in 1.5 mi West 11.5 mph - 0.00 in Snow Light Snow
6:46 AM 15.1 °F 2.5 °F 10.9 °F 84% 29.97 in 1.0 mi West 10.4 mph - 0.00 in Snow Light Snow
6:53 AM 15.8 °F 2.7 °F 10.4 °F 79% 29.98 in 1.0 mi West 11.5 mph - N/A Snow Light Snow
7:53 AM 15.1 °F -0.6 °F 10.0 °F 80% 30.07 in 1.2 mi West 16.1 mph 19.6 mph 0.00 in Snow Light Snow
8:09 AM 14.0 °F 1.2 °F 10.0 °F 84% 30.03 in 0.8 mi WNW 10.4 mph - 0.00 in Snow Light Snow
8:53 AM 14.0 °F -0.8 °F 8.1 °F 77% 30.12 in 0.8 mi West 13.8 mph - 0.00 in Snow Light Snow
9:14 AM 12.9 °F -2.2 °F 8.1 °F 81% 30.08 in 1.2 mi West 13.8 mph - 0.01 in Snow Light Snow
9:34 AM 12.9 °F -0.9 °F 8.1 °F 81% 30.09 in 0.8 mi West 11.5 mph - 0.01 in Snow Light Snow
9:49 AM 12.2 °F -3.1 °F 8.6 °F 85% 30.10 in 0.2 mi West 13.8 mph - 0.01 in Snow Heavy Snow
9:53 AM 12.9 °F -2.8 °F 8.1 °F 81% 30.15 in 0.2 mi West 15.0 mph - 0.01 in Snow Heavy Snow
10:05 AM 12.9 °F -3.4 °F 7.0 °F 77% 30.10 in 0.8 mi WSW 16.1 mph 25.3 mph 0.00 in Snow Light Snow
10:12 AM 12.9 °F -2.2 °F 7.0 °F 77% 30.10 in 1.2 mi West 13.8 mph 24.2 mph 0.00 in Snow Light Snow
10:42 AM 12.9 °F -4.9 °F 5.0 °F 71% 30.11 in 2.0 mi West 19.6 mph - 0.00 in Snow Light Snow
10:53 AM 12.0 °F -6.5 °F 3.9 °F 70% 30.17 in 1.8 mi West 20.7 mph 29.9 mph 0.00 in Snow Light Snow
11:53 AM 10.9 °F -7.5 °F 5.0 °F 77% 30.18 in 0.2 mi West 19.6 mph 31.1 mph 0.00 in Snow Heavy Snow
12:08 PM 12.0 °F -3.4 °F 6.1 °F 77% 30.12 in 0.5 mi West 13.8 mph - 0.00 in Snow Snow
12:31 PM 12.0 °F -5.6 °F 3.9 °F 70% 30.12 in 1.2 mi WNW 18.4 mph 26.5 mph 0.00 in Snow Light Snow
12:37 PM 10.9 °F -7.5 °F 3.0 °F 70% 30.12 in 3.0 mi West 19.6 mph 25.3 mph 0.00 in Snow Light Snow
12:50 PM 10.4 °F -9.9 °F 1.4 °F 67% 30.13 in 1.8 mi West 24.2 mph 29.9 mph 0.00 in Snow Light Snow
12:53 PM 10.9 °F -9.2 °F 1.9 °F 67% 30.18 in 1.2 mi West 24.2 mph 29.9 mph 0.00 in Snow Light Snow
1:09 PM 12.0 °F -5.6 °F 1.9 °F 64% 30.13 in 2.0 mi West 18.4 mph 25.3 mph 0.00 in Snow Light Snow
1:53 PM 10.9 °F -5.4 °F 3.0 °F 70% 30.18 in 2.0 mi West 15.0 mph - 0.00 in Snow Light Snow
2:53 PM 10.0 °F -7.6 °F 1.0 °F 67% 30.20 in 2.0 mi West 17.3 mph - 0.00 in Snow Light Snow
3:08 PM 9.0 °F -7.3 °F 1.0 °F 70% 30.16 in 2.0 mi West 13.8 mph 26.5 mph 0.00 in Snow Light Snow
3:53 PM 8.1 °F -9.6 °F -0.0 °F 70% 30.23 in 2.0 mi West 16.1 mph 26.5 mph 0.00 in Snow Light Snow
4:53 PM 8.1 °F -7.0 °F 1.9 °F 76% 30.25 in 2.0 mi West 11.5 mph - 0.00 in Snow Light Snow
5:44 PM 8.1 °F -7.0 °F 3.0 °F 80% 30.21 in 0.8 mi West 11.5 mph 20.7 mph 0.00 in Snow Light Snow
5:53 PM 8.1 °F -5.3 °F 3.0 °F 80% 30.28 in 0.8 mi West 9.2 mph - 0.00 in Snow Light Snow
6:53 PM 7.0 °F -5.7 °F 1.0 °F 77% 30.30 in 1.5 mi West 8.1 mph - 0.00 in Snow Light Snow
7:53 PM 7.0 °F -7.5 °F 1.9 °F 80% 30.33 in 1.5 mi WSW 10.4 mph - 0.00 in Snow Light Snow
8:53 PM 7.0 °F -5.7 °F 1.9 °F 80% 30.34 in 1.5 mi WSW 8.1 mph - 0.00 in Snow Light Snow
9:00 PM 7.0 °F -5.7 °F 1.9 °F 80% 30.28 in 1.5 mi WSW 8.1 mph - 0.00 in Snow Light Snow
9:53 PM 8.1 °F -7.7 °F 1.9 °F 76% 30.35 in 2.0 mi West 12.7 mph 19.6 mph 0.00 in Snow Light Snow
10:53 PM 8.1 °F -6.2 °F 3.0 °F 80% 30.36 in 2.0 mi West 10.4 mph - 0.00 in Snow Light Snow
11:41 PM 8.1 °F -4.3 °F 3.0 °F 80% 30.31 in 1.5 mi WSW 8.1 mph - 0.00 in Snow Light Snow
11:53 PM 8.1 °F -3.2 °F 3.0 °F 80% 30.37 in 1.5 mi SW 6.9 mph - 0.00 in Snow Light Snow